Location: *
(33.3200°N, 8.3381°W)
Time: 16:35:18
(UTC+00:00)

H-2A R/B - Pass Details

Date: 09 April 2020
Orbit: 734 x 836 km, 98.2° (Epoch: 26 May)

Event Time Altitude Azimuth Distance (km) Brightness Sun altitude
Exits shadow 19:53:50 - 156° (SSE) 3,025 4.7 -11.8°
Reaches altitude 10° 19:55:30 10° 153° (SSE) 2,365 4.1 -12.1°
Maximum altitude 20:00:38 60° 75° (ENE) 895 2.1 -13.1°
Drops below altitude 10° 20:05:39 10° 356° (N) 2,312 4.8 -14.1°
Sets 20:07:57 0° 353° (N) 3,227 5.6 -14.5°
